Theta_e
303 302 302 301 301 301 302 302 303 302 302 301 299 298 297 296 292 291 290 292 294 296 298 296 297 300 301 301 302 301 301 304 307 302 301 300 299 304 307 305 305 306 305 305 303 304 305 306 306 308 309 307 307 306 306 306 305 305 305 305 306 305 304 304 304 304 304 306 305 303 303 302 302 302
303 303 302 302 302 303 300 301 301 300 300 300 300 299 298 296 294 293 291 290 294 295 297 299 298 300 301 302 302 302 301 307 307 302 300 299 298 306 305 304 303 303 304 303 301 302 303 304 306 307 308 306 306 307 307 305 304 304 304 305 305 304 304 304 304 304 304 304 303 303 303 303 303 303
303 302 301 301 300 301 301 301 300 300 300 299 299 299 300 299 296 294 293 290 292 297 296 297 300 300 300 301 301 302 300 304 306 301 299 298 305 306 303 304 303 303 302 302 304 306 304 302 303 305 306 306 305 306 305 303 303 304 303 303 303 304 304 304 304 305 306 306 304 305 304 304 304 304
304 302 301 301 301 302 301 300 300 300 302 301 300 300 300 299 298 297 294 292 292 296 297 297 299 301 300 300 299 298 300 302 306 299 297 299 304 299 298 302 302 302 302 302 302 303 302 301 302 304 306 306 305 305 304 301 302 303 302 301 302 302 303 303 304 305 306 306 305 304 303 304 303 303
301 301 301 301 301 301 300 299 301 301 301 301 300 301 298 297 297 296 294 293 294 295 298 298 299 300 299 298 298 298 297 297 298 301 297 298 297 298 297 297 301 301 302 302 302 302 301 302 305 307 305 304 303 303 301 301 301 301 301 300 301 301 302 302 303 304 305 306 306 304 304 303 303 303
303 300 299 300 300 301 300 299 300 300 299 301 298 298 299 297 298 298 297 294 294 293 295 295 297 296 298 296 298 296 296 296 297 296 297 298 298 298 296 296 297 301 303 302 302 302 301 301 302 302 301 300 300 301 300 300 300 300 300 297 297 300 301 302 301 301 302 304 304 304 303 303 303 302
301 300 301 300 302 304 300 300 299 299 299 300 299 298 298 297 297 298 297 295 293 292 293 295 294 295 296 295 296 296 298 297 296 295 296 297 298 298 296 296 297 300 301 301 301 301 301 301 301 301 300 300 300 300 300 300 300 299 299 298 298 300 300 300 299 300 301 301 302 303 303 304 303 303
301 300 299 300 301 301 299 298 297 297 298 298 298 297 297 296 296 296 295 294 293 292 293 293 294 295 294 294 296 298 297 295 295 295 296 296 296 295 296 296 297 299 301 302 301 301 302 302 302 301 300 300 300 300 300 300 299 298 298 298 298 298 298 298 298 299 299 300 301 302 303 303 304 304
300 301 300 301 301 300 297 296 295 295 295 297 298 295 295 295 295 295 295 294 294 291 291 292 294 294 294 295 295 296 294 294 294 294 294 294 295 295 295 297 299 301 302 301 301 301 301 301 301 301 300 300 300 300 300 299 299 298 298 298 298 297 297 298 298 298 298 298 299 300 302 303 304 305
302 300 300 300 300 299 297 295 294 294 294 295 295 294 293 293 293 292 293 293 292 291 291 290 291 292 292 292 293 295 295 294 293 293 293 294 295 294 294 295 297 298 298 297 298 300 300 300 301 301 301 300 299 299 299 299 299 298 299 298 298 297 297 297 297 297 297 297 298 298 299 301 303 303
302 301 300 299 297 296 295 293 292 292 293 296 293 295 293 293 291 291 291 292 291 290 290 290 290 290 292 292 292 294 294 293 293 292 291 292 294 295 295 294 296 296 297 298 299 299 300 302 301 301 300 299 300 300 300 300 299 299 299 297 296 296 296 296 296 297 297 297 297 298 298 297 299 301
301 301 298 296 295 295 294 293 292 292 292 293 293 292 293 293 292 291 292 291 291 290 290 289 288 289 290 290 292 294 292 291 291 293 292 291 292 294 295 294 293 295 295 295 297 299 299 299 300 300 300 300 301 301 300 300 300 300 299 297 297 297 297 296 297 297 297 297 297 297 297 298 299 299
301 298 296 295 294 301 302 302 301 303 302 294 292 292 293 294 292 291 291 293 291 291 290 290 290 289 289 290 290 290 291 291 291 293 293 292 293 294 294 294 294 295 294 295 296 296 297 297 297 297 296 297 300 300 300 300 300 299 298 297 298 297 298 297 297 297 297 296 296 297 297 297 298 298
299 296 295 301 304 302 301 302 299 297 299 303 298 294 293 293 292 291 291 291 291 292 291 289 289 289 289 290 291 291 292 293 293 293 293 292 293 293 292 293 294 295 294 294 294 295 297 296 296 296 295 297 299 298 298 297 298 298 297 297 297 297 297 297 297 297 296 296 296 296 296 297 297 298
299 296 296 296 301 302 304 300 298 296 296 295 295 297 299 300 295 292 291 291 291 291 292 291 290 288 289 291 292 292 293 293 293 293 293 293 293 291 290 289 292 295 295 294 293 293 296 295 294 295 296 297 297 298 298 299 298 298 297 297 297 297 297 297 296 296 296 295 296 296 295 296 297 298
299 295 295 296 300 298 297 297 297 298 297 295 294 294 294 293 294 296 294 293 291 290 290 290 290 289 289 290 292 292 292 292 293 294 293 293 292 291 290 290 289 294 296 293 292 292 294 295 295 294 296 297 297 298 298 298 297 297 297 297 297 297 297 297 296 296 295 295 295 296 296 296 296 296
299 296 295 297 299 301 306 305 297 296 297 300 297 296 296 296 295 292 291 293 295 292 290 290 289 290 290 290 292 294 294 294 292 293 293 293 292 292 291 291 292 294 296 293 291 290 292 294 294 294 296 296 296 297 298 298 297 297 297 297 297 296 296 296 295 295 295 295 295 295 296 297 297 297
300 298 296 297 299 298 301 297 294 293 292 292 292 293 294 295 299 298 296 293 292 295 293 291 290 292 292 292 293 296 295 293 293 292 292 292 292 291 292 293 293 294 296 292 290 289 292 293 293 293 295 296 296 297 297 297 297 297 297 297 296 295 295 295 295 295 294 294 294 295 295 296 296 297
301 300 300 299 298 298 296 295 294 292 291 291 292 292 294 296 297 297 297 294 293 293 293 292 292 292 293 294 295 295 295 294 294 294 293 292 292 293 293 293 293 293 295 293 290 288 291 294 292 293 294 295 296 296 296 297 297 297 297 296 296 295 295 295 294 294 294 294 294 294 294 294 295 295
301 301 300 299 298 296 293 298 296 295 292 291 291 292 293 295 295 297 304 297 297 296 294 294 294 295 296 295 295 295 295 294 293 294 294 293 292 290 290 290 292 292 294 294 290 289 291 293 291 291 294 295 294 295 295 297 297 297 296 296 295 295 295 294 294 294 294 294 294 294 294 294 294 294
300 301 299 298 296 293 291 293 290 292 295 291 292 293 291 293 293 295 297 296 295 295 294 293 293 293 293 294 294 294 294 294 293 290 290 292 291 290 289 290 290 291 292 293 290 290 289 291 291 291 293 294 293 294 295 296 297 297 296 296 296 295 295 295 294 294 294 294 294 294 294 294 294 295
298 301 310 304 296 293 292 291 290 291 294 290 291 292 291 291 292 293 294 295 295 294 294 294 294 294 294 294 295 295 295 295 296 293 292 293 290 290 290 289 290 291 292 293 293 289 289 291 291 290 292 292 293 294 294 295 296 297 296 295 296 295 295 294 293 294 294 295 295 295 295 295 296 296
299 299 307 306 299 294 293 290 290 291 294 291 291 291 291 290 290 291 290 291 291 292 293 294 294 294 296 298 297 297 296 296 299 295 294 293 291 290 290 291 290 289 290 293 294 289 290 290 291 290 289 289 292 294 294 295 295 295 295 295 295 296 295 294 293 294 295 295 295 296 296 296 296 296
296 298 297 298 293 292 290 289 289 290 293 291 290 291 290 289 290 290 290 292 292 292 292 292 293 294 295 295 294 294 295 297 298 296 295 294 293 292 290 290 290 288 289 293 295 290 290 289 289 291 287 288 287 292 294 293 294 294 294 294 294 295 295 294 294 295 295 295 295 296 296 296 296 295
297 297 295 293 293 290 290 290 289 290 290 292 291 290 290 291 292 292 289 292 295 291 293 293 293 294 294 293 294 293 294 295 296 296 295 295 294 293 292 289 289 289 291 294 295 292 288 289 289 289 289 287 289 289 291 292 294 293 294 294 294 295 295 294 295 295 295 295 296 296 296 297 296 295
296 296 295 293 292 290 290 290 290 290 290 290 292 291 291 291 291 291 292 291 292 292 292 291 292 293 291 291 293 293 294 294 296 295 295 295 295 295 293 291 289 288 291 295 294 293 289 289 289 288 288 288 289 290 289 290 292 293 293 294 294 295 295 294 294 294 296 297 298 297 295 295 296 295
292 294 295 296 295 290 290 290 290 290 290 290 290 290 289 290 289 290 290 290 291 289 290 291 291 291 291 292 291 292 293 294 295 295 295 295 295 295 296 294 292 292 293 294 295 294 290 287 290 288 287 287 287 288 289 288 289 292 292 293 293 294 295 294 293 294 296 299 298 295 294 294 294 294
290 289 293 295 292 290 290 290 290 289 290 289 289 289 289 289 290 290 289 289 291 290 290 291 291 290 290 290 291 292 294 294 294 295 295 295 295 295 295 294 295 294 294 294 294 293 291 289 290 290 287 286 286 286 286 289 290 290 290 292 293 294 294 294 293 294 295 299 297 295 293 291 292 291
290 288 289 292 291 290 290 290 289 289 289 289 289 289 289 292 289 290 289 289 291 290 291 291 291 290 291 291 292 294 293 294 294 293 295 295 295 295 295 295 295 295 296 296 294 293 292 291 290 289 288 285 285 285 285 286 288 289 290 290 289 292 294 294 293 293 293 297 297 296 294 292 291 290
290 289 289 289 290 290 290 290 288 288 290 290 289 289 290 291 289 289 289 290 290 291 291 290 289 290 290 292 294 293 292 292 292 292 293 293 293 294 293 292 294 295 296 295 295 293 292 292 291 289 288 288 285 286 285 285 287 289 290 290 290 292 293 293 293 293 293 294 297 296 296 296 295 294
289 288 289 289 289 290 289 290 290 290 292 292 292 291 292 293 292 292 291 292 292 292 291 291 290 290 291 292 292 292 291 291 292 293 292 291 293 292 292 290 291 293 295 295 295 295 293 293 292 289 288 288 288 286 285 284 286 288 289 290 290 287 291 293 293 292 292 293 295 296 295 295 294 294
291 290 290 289 289 289 290 289 289 289 290 290 289 290 290 291 292 294 295 295 293 292 293 292 291 291 292 292 292 291 291 290 292 292 291 292 292 292 291 290 289 290 292 293 295 295 295 294 292 292 288 285 285 287 284 285 286 286 288 290 290 291 292 291 292 292 292 292 292 292 293 293 292 293
293 291 289 290 289 288 288 289 290 289 290 290 291 292 292 292 291 292 291 293 293 293 292 291 291 292 291 291 291 290 290 291 291 292 292 292 292 292 291 289 290 289 289 291 292 293 294 295 294 292 289 283 285 284 283 285 286 286 286 288 289 290 291 292 292 292 292 291 290 290 290 291 291 292
291 291 289 289 288 289 288 289 288 289 289 290 291 293 292 293 292 292 293 293 293 292 291 291 290 290 290 291 290 289 289 290 291 291 290 291 291 290 289 289 290 290 289 290 291 291 292 293 294 294 291 287 285 284 285 282 285 286 287 288 288 289 290 291 292 293 292 291 289 288 288 289 290 291
288 288 287 287 288 287 289 288 290 288 288 288 288 290 292 293 293 291 292 292 290 289 286 288 290 290 289 289 289 288 289 290 290 291 290 290 290 288 288 288 289 290 289 290 290 291 291 291 291 291 291 292 291 287 286 285 283 284 286 287 288 288 289 290 291 292 292 291 291 288 287 288 288 290
286 285 287 285 287 287 288 287 286 286 288 288 288 288 288 289 288 290 290 292 293 289 288 287 287 286 287 289 286 286 288 286 289 290 289 289 288 289 289 289 288 289 289 290 290 291 290 290 290 289 288 288 287 287 289 289 287 283 285 286 287 287 288 289 291 292 291 291 290 289 286 286 287 289
286 287 288 287 288 287 286 287 287 288 289 290 290 291 290 289 289 291 293 292 292 289 290 288 287 285 285 285 285 286 286 286 288 288 287 288 288 289 288 287 288 288 289 290 290 290 290 290 289 288 287 287 286 286 288 288 287 288 285 285 286 287 286 288 289 289 291 291 290 289 288 287 287 289
286 287 288 289 289 289 288 288 288 288 289 290 290 290 292 293 294 294 294 293 292 289 289 288 286 286 287 286 288 287 287 286 286 287 286 286 285 286 286 286 287 288 288 289 290 290 289 288 288 289 287 286 285 286 286 289 289 287 288 285 285 286 286 286 287 287 288 290 289 290 289 288 289 289
289 289 288 288 288 287 287 288 288 289 291 291 291 291 292 293 293 293 291 291 292 290 287 287 287 287 288 287 287 287 287 287 287 288 287 287 286 286 287 286 287 288 287 287 289 290 289 288 288 289 288 286 286 286 286 285 286 289 286 289 286 285 286 285 286 287 288 287 288 290 289 289 291 290
290 289 288 288 288 288 289 291 290 289 290 291 291 293 293 293 292 293 291 289 289 291 289 288 287 288 286 286 287 286 286 288 287 286 285 286 286 287 286 287 286 286 285 286 287 288 288 288 288 289 288 288 288 288 287 286 286 286 283 282 288 286 285 285 285 285 286 287 288 287 288 288 288 290
290 290 290 291 291 292 291 291 291 290 291 292 293 293 294 295 293 293 292 290 288 289 288 287 287 287 287 287 287 287 286 286 286 285 284 285 286 286 287 286 286 285 285 286 287 287 289 290 290 288 288 288 288 289 287 288 288 289 289 286 286 288 289 289 285 285 285 286 286 286 287 288 287 288
292 292 292 291 292 292 293 292 292 291 291 291 291 293 294 293 292 292 291 290 291 287 287 288 286 286 286 286 286 286 285 286 285 286 285 286 286 287 287 286 286 287 285 287 287 288 290 290 289 290 290 287 287 287 286 286 286 287 288 288 282 284 287 288 290 289 286 285 285 286 286 288 288 287
293 293 292 292 293 293 293 293 293 292 292 292 291 292 292 292 291 291 289 288 289 287 288 287 287 287 286 285 285 285 285 286 285 285 286 286 286 286 287 287 286 286 286 286 287 287 287 288 288 287 287 287 286 285 285 286 286 287 288 288 288 284 282 286 287 288 288 288 288 287 286 285 286 285
294 293 294 294 294 294 294 294 293 292 292 292 291 292 291 291 291 289 288 288 288 288 287 287 286 286 286 286 286 285 285 286 286 287 287 287 287 286 286 286 286 287 285 285 286 287 287 288 287 285 286 287 285 286 286 286 286 287 287 286 287 288 289 285 282 284 285 286 288 288 289 288 287 288
293 294 294 293 293 294 293 293 293 293 292 292 291 291 291 289 288 288 288 288 287 287 287 286 286 286 287 287 286 287 287 288 287 286 286 286 286 286 285 285 285 285 286 285 285 287 287 287 287 287 286 287 285 285 286 285 285 286 287 287 287 288 288 287 287 287 285 284 285 288 288 288 288 288
Wind_Speed
6 6 6 6 6 5 5 5 5 4 4 5 6 6 7 5 6 2 4 2 2 3 5 4 4 5 7 7 7 7 7 8 9 6 5 5 5 8 13 15 15 14 13 15 15 15 14 12 12 10 9 10 12 12 13 13 14 17 19 23 26 26 24 21 19 20 21 22 24 21 22 22 22 23
6 6 6 5 6 4 5 4 4 4 4 5 6 6 5 6 6 2 2 3 1 3 4 2 3 6 8 7 7 6 6 10 10 5 5 5 5 13 15 15 14 14 16 17 17 16 15 14 11 9 8 9 11 11 11 15 17 18 21 24 24 23 22 21 22 22 21 22 22 21 21 21 21 22
6 6 6 5 6 4 4 3 3 4 4 4 4 5 4 4 4 2 1 1 4 2 5 3 3 5 5 7 7 6 6 8 9 5 5 6 13 16 11 13 15 17 17 17 18 18 17 15 9 8 7 10 11 12 13 16 17 20 23 23 23 21 21 22 23 24 24 23 23 22 21 21 21 22
5 6 6 4 4 2 3 3 3 3 4 3 5 4 5 3 3 3 1 1 5 2 2 4 6 6 7 8 6 7 6 7 9 5 6 10 14 9 6 10 17 17 17 18 18 18 18 15 9 8 8 10 12 13 14 16 18 21 23 23 20 18 20 21 22 23 24 24 24 22 22 22 22 21
5 6 5 5 4 4 5 4 4 5 5 4 5 5 6 4 2 2 1 1 5 3 1 3 4 7 6 6 6 7 6 7 6 7 8 11 9 7 6 9 14 17 17 18 19 19 19 16 9 9 8 9 10 11 13 15 18 20 23 22 19 20 21 23 22 21 23 24 24 23 22 21 21 21
5 5 6 4 4 4 5 4 4 4 6 5 4 4 6 5 4 2 3 2 1 7 4 5 5 5 4 5 6 6 7 6 6 10 11 9 9 7 7 8 9 16 17 18 19 19 19 20 11 10 10 9 10 11 13 15 17 18 20 20 18 19 20 20 20 21 21 21 22 23 22 20 19 19
5 5 4 4 2 3 4 4 4 5 5 4 5 4 4 4 3 4 3 3 2 4 6 3 5 5 6 5 6 7 6 5 8 10 10 9 8 8 8 7 7 13 16 17 18 19 19 22 15 12 11 10 10 10 13 15 17 17 16 16 17 17 15 18 21 22 22 21 20 20 19 19 19 18
5 4 4 3 3 4 6 4 5 5 4 4 4 4 3 4 4 4 4 4 1 2 5 5 5 6 7 6 6 7 5 7 9 8 8 7 9 10 7 7 8 11 16 16 17 18 19 21 19 13 11 10 9 10 13 15 15 15 15 13 14 16 18 18 17 19 20 20 19 18 18 18 19 19
5 4 4 3 4 5 6 4 5 5 5 4 5 4 4 4 3 4 4 4 3 3 5 5 4 6 5 5 7 6 7 7 7 6 7 8 10 10 8 5 7 13 16 15 16 17 18 20 20 15 11 11 10 11 13 14 15 16 16 16 16 16 17 20 19 20 20 19 19 20 20 19 19 19
4 4 4 4 5 5 6 4 4 4 4 4 4 4 4 4 4 4 4 4 4 4 4 4 5 5 6 7 6 6 6 8 8 7 6 8 9 9 9 7 7 7 8 8 9 11 13 15 19 16 12 11 11 12 13 14 15 17 17 18 18 17 18 17 19 20 19 21 22 21 20 18 19 20
5 5 5 5 6 6 5 5 4 4 4 4 3 3 3 3 3 4 3 3 4 3 4 3 3 4 5 4 7 6 5 6 6 7 7 9 9 11 10 8 7 8 9 10 13 13 14 16 15 13 12 13 13 14 14 14 16 17 18 18 18 18 18 19 18 20 20 22 21 20 18 17 17 18
5 6 6 6 5 5 5 5 4 4 3 2 2 1 1 2 3 3 3 3 3 3 4 3 5 3 4 6 4 5 5 6 7 5 4 10 11 11 12 8 8 7 7 10 9 9 11 11 13 12 11 14 14 15 14 14 16 18 19 20 20 19 19 19 18 18 20 21 20 18 17 18 18 19
6 6 5 5 4 4 7 8 5 4 3 2 0 1 0 1 1 2 3 3 4 4 3 6 4 5 6 6 6 8 7 8 9 9 5 7 9 10 12 12 5 6 9 9 9 9 9 9 9 8 7 8 10 11 13 12 15 17 20 22 22 20 20 20 18 18 19 21 20 17 17 18 19 19
6 6 5 5 10 9 8 6 5 4 3 3 2 2 1 1 1 3 4 5 4 3 5 5 5 7 8 8 7 6 7 8 7 8 8 9 10 9 8 11 9 7 5 9 11 10 9 8 9 8 8 8 8 8 8 9 14 18 22 24 24 23 22 21 19 18 18 18 19 19 18 17 18 18
6 5 5 5 7 7 7 4 6 5 5 5 5 6 6 5 3 4 4 6 4 3 3 4 5 5 7 9 7 7 8 7 7 8 8 9 9 10 12 12 11 5 8 10 10 12 10 8 10 9 7 9 8 7 8 16 18 19 22 24 24 23 22 22 20 18 18 18 18 18 18 17 16 17
6 5 5 4 4 4 4 4 4 5 5 6 6 7 9 9 8 8 7 6 5 3 3 5 6 5 7 8 8 8 6 7 8 9 8 9 9 11 11 10 11 11 10 10 10 11 10 9 8 8 9 9 7 8 14 18 17 20 23 24 24 23 22 20 20 19 19 19 18 17 17 17 16 16
5 6 5 4 4 4 8 5 3 2 0 1 4 6 8 10 11 11 12 12 9 4 4 5 7 6 4 6 8 8 8 7 8 9 9 9 8 9 10 10 11 14 10 8 9 11 11 8 9 10 11 8 7 9 12 16 17 21 23 24 23 21 20 20 21 20 20 20 19 17 17 17 17 17
6 7 7 6 4 4 4 4 5 4 3 2 2 3 3 4 8 9 9 9 10 8 7 5 6 9 2 7 9 12 8 8 9 8 9 9 8 9 11 13 11 11 8 9 9 9 11 9 9 12 12 8 8 9 13 17 17 22 23 22 21 20 21 20 19 19 18 18 17 16 16 17 16 16
6 7 7 7 6 5 4 4 5 4 3 2 3 3 4 5 5 4 3 1 3 4 5 6 8 10 8 8 10 10 10 7 8 7 8 8 8 9 9 9 8 9 9 8 5 8 12 10 9 11 12 9 9 9 11 15 19 22 22 21 21 21 20 19 19 18 18 17 17 17 16 16 17 16
7 7 7 5 4 5 5 6 9 6 3 3 2 3 4 5 5 5 3 3 5 4 3 5 6 7 9 12 11 12 10 9 8 6 6 5 5 6 8 10 11 8 10 9 5 6 11 10 8 11 11 9 9 9 8 14 20 22 22 21 21 21 21 20 19 19 18 16 16 16 16 16 16 15
5 5 5 5 7 6 5 6 8 8 7 3 1 2 3 4 4 5 3 3 2 3 6 9 11 13 15 16 17 17 17 10 5 2 5 8 6 7 9 10 10 11 10 7 4 5 10 11 10 11 11 10 9 8 11 12 17 22 22 21 21 20 19 20 19 18 18 18 16 15 16 15 14 13
4 4 9 7 7 6 5 7 7 7 5 2 0 1 2 4 4 5 4 5 7 9 11 13 13 13 14 15 15 14 11 12 6 2 7 8 6 8 8 10 10 11 10 9 6 7 9 11 10 9 8 7 7 10 11 13 15 19 18 21 21 20 21 21 20 18 17 16 16 16 15 15 12 7
4 3 6 10 8 8 8 9 7 7 5 3 1 1 1 3 4 6 3 4 6 8 9 10 10 11 13 11 6 5 12 13 9 5 5 7 6 8 9 9 9 9 8 11 9 10 11 12 11 8 9 10 8 8 11 13 14 15 15 15 15 20 22 23 20 18 18 17 15 15 14 13 10 4
3 4 4 8 13 13 12 10 9 8 7 4 3 2 2 3 5 3 3 2 2 5 5 7 7 9 9 8 5 6 7 8 6 6 6 6 6 6 7 8 7 7 8 10 13 9 8 6 10 8 4 8 12 14 13 13 13 15 15 15 13 17 20 20 18 20 18 16 16 14 13 13 9 6
6 6 6 4 11 14 13 12 11 9 8 6 3 4 4 6 4 2 4 5 6 5 6 6 7 8 8 5 6 6 7 7 7 7 6 7 5 5 6 7 7 7 8 11 15 7 7 8 10 9 8 3 6 9 11 12 12 14 16 15 15 14 13 14 12 12 14 15 15 14 13 12 10 9
6 7 7 6 10 14 13 12 11 10 9 8 3 6 10 10 8 4 2 4 4 6 6 6 7 8 6 6 7 7 7 7 8 7 7 7 7 7 4 4 5 6 9 13 15 9 8 10 10 10 9 9 12 9 11 11 10 13 15 14 13 12 12 14 13 14 13 10 7 9 11 8 8 9
2 3 6 9 14 15 14 12 11 10 9 6 6 10 9 10 7 4 3 3 4 6 6 6 7 7 4 5 7 6 7 8 7 7 7 8 8 7 8 6 4 5 8 10 10 9 6 7 9 9 10 8 10 11 9 11 14 16 17 18 16 13 13 12 13 13 13 9 7 12 12 12 9 5
2 2 5 8 13 15 14 12 11 10 8 7 10 10 11 9 4 2 3 4 4 4 6 7 7 6 4 3 6 6 7 7 7 7 7 8 8 8 8 8 7 6 7 8 9 8 7 7 9 9 6 7 9 10 11 9 8 13 16 15 14 13 12 13 12 13 13 11 9 9 8 7 5 5
1 2 2 8 13 14 13 12 9 6 8 11 10 11 12 8 3 5 4 6 4 6 7 7 7 5 4 3 5 6 5 5 5 5 7 8 8 8 8 9 8 7 5 6 7 8 7 7 9 9 8 5 6 7 4 8 8 11 14 17 17 16 13 13 11 12 12 9 10 10 9 6 6 4
2 1 5 6 9 9 8 5 4 4 7 10 11 12 10 5 6 5 5 5 5 6 7 6 7 6 4 4 5 4 4 5 7 5 6 7 9 8 7 9 10 11 10 9 7 7 7 8 8 8 9 9 5 6 5 6 8 9 12 13 13 11 11 12 12 11 12 11 8 8 8 8 8 7
3 1 3 4 6 5 7 7 7 7 7 5 6 6 6 6 6 6 6 7 7 7 7 6 7 7 6 3 4 6 6 6 7 5 5 6 7 7 7 6 9 10 12 12 11 7 6 7 8 6 8 9 9 6 5 3 6 8 11 12 13 12 14 13 12 12 11 10 8 7 9 9 8 7
3 3 4 3 3 3 3 5 5 6 6 6 5 6 6 6 6 7 8 6 5 7 7 7 6 6 4 3 6 5 6 7 7 6 5 5 7 7 5 6 8 8 10 12 12 13 11 6 6 8 6 5 7 9 6 5 6 6 8 10 12 11 12 13 12 12 12 10 8 9 7 8 9 9
4 3 5 5 4 5 6 5 7 6 5 6 6 5 6 6 6 7 4 7 7 8 7 7 8 8 4 5 4 4 5 6 7 6 7 6 6 8 5 7 7 8 9 11 11 11 12 13 8 6 7 4 4 4 4 8 7 5 6 9 11 12 12 12 12 12 13 12 11 8 8 7 8 8
5 6 6 7 7 7 7 6 7 6 6 5 6 7 7 7 6 7 7 7 8 7 8 8 6 5 4 4 5 4 5 7 7 7 5 6 6 5 6 7 8 8 8 9 10 9 10 11 12 13 7 3 4 5 4 2 8 8 7 6 7 10 10 10 11 12 10 8 8 9 9 8 9 9
7 6 7 7 6 6 6 7 7 6 5 6 6 7 7 7 8 7 7 8 5 5 4 4 5 4 3 4 4 3 5 6 7 8 7 6 6 6 7 6 8 9 9 9 10 9 7 9 9 10 13 12 11 3 6 5 1 7 7 6 6 8 10 9 10 11 11 11 10 10 9 10 9 8
7 7 7 7 7 6 5 5 5 5 6 6 6 7 6 7 7 7 6 6 6 6 5 5 6 4 3 3 3 3 4 5 6 7 7 7 7 7 7 7 7 8 8 8 9 8 7 8 7 9 11 13 12 13 12 6 5 2 7 9 7 8 8 9 8 10 11 11 10 9 10 10 9 9
7 7 7 7 6 5 5 5 5 6 6 6 7 7 5 6 7 6 7 5 4 4 7 7 5 3 4 4 3 3 4 4 6 7 8 7 7 6 6 8 8 8 8 9 8 8 6 7 7 7 10 10 12 13 14 6 5 5 3 6 8 6 7 8 8 10 10 9 10 9 7 7 9 9
8 7 8 7 6 6 5 6 6 6 7 7 7 7 7 7 7 8 5 3 6 6 5 4 5 4 4 4 1 4 5 5 4 7 7 6 5 7 7 7 7 8 8 9 8 8 6 6 7 8 7 9 10 11 13 12 10 4 1 3 5 8 6 7 8 9 9 8 8 8 5 7 8 8
7 8 8 7 7 6 6 6 6 6 6 6 6 6 6 8 7 7 4 5 3 2 2 4 4 5 3 3 2 2 4 6 8 8 7 7 5 6 7 7 8 8 7 9 9 9 8 7 8 7 7 7 8 9 7 8 9 11 5 3 1 5 6 6 7 7 7 9 9 8 5 5 8 9
8 7 7 7 7 6 6 5 5 6 6 7 6 6 7 8 8 6 4 4 3 5 7 6 5 3 2 3 3 2 2 5 7 7 5 5 6 6 7 7 7 6 6 8 9 10 8 9 7 7 8 7 7 8 8 7 7 7 6 4 3 1 3 4 6 6 7 7 7 5 6 5 9 9
6 7 6 6 6 6 6 6 7 7 7 7 6 6 7 8 7 6 7 6 4 6 5 4 4 4 3 3 3 2 5 7 6 5 4 5 6 6 8 7 8 6 5 8 8 9 10 8 9 11 6 5 6 5 6 10 12 12 12 9 4 5 4 4 2 3 4 6 7 6 8 9 7 10
7 7 6 6 7 7 7 7 7 7 7 7 6 7 8 6 7 6 7 5 5 5 7 5 4 4 3 2 4 3 3 6 6 5 5 5 7 7 8 7 7 8 7 8 8 9 10 7 7 7 7 7 8 10 9 9 10 11 11 10 7 5 7 6 6 4 3 3 5 6 6 6 3 11
7 7 7 7 8 8 8 8 8 7 7 7 7 7 8 7 7 5 4 4 5 5 5 5 4 3 3 4 4 4 5 5 5 5 6 6 6 7 7 8 7 7 7 7 7 8 8 8 6 7 7 7 5 4 8 9 8 8 10 11 11 9 6 5 7 7 7 6 4 2 2 3 5 8
7 7 8 7 7 8 8 8 8 7 7 7 8 7 6 7 8 6 5 4 4 6 5 5 4 5 6 4 4 4 4 5 5 7 7 7 6 6 6 7 7 7 7 6 7 8 8 8 7 6 7 7 6 7 9 9 10 9 8 8 8 9 11 9 5 5 6 6 6 6 6 6 4 4
7 7 8 7 7 7 7 7 7 7 7 8 7 6 7 5 5 3 3 4 5 5 4 4 3 3 5 6 4 5 6 5 5 6 5 6 5 6 5 5 6 6 7 6 5 8 8 8 8 7 6 8 5 5 7 5 7 8 9 9 10 9 9 8 9 10 9 7 5 5 5 5 5 6
Wind_Direction
97 92 96 102 94 80 67 54 53 47 44 75 91 93 97 104 102 31 4 291 323 321 25 11 321 8 342 328 319 319 313 303 302 299 308 310 316 314 327 332 330 332 334 333 329 324 319 309 303 327 334 346 331 319 314 317 326 322 311 305 306 306 305 300 292 288 290 293 295 292 286 284 280 278
103 101 92 92 94 92 82 89 72 63 70 66 84 104 110 111 105 148 70 292 250 299 339 33 326 335 329 325 318 317 304 303 312 317 325 327 316 336 342 332 333 336 336 332 327 323 320 312 323 324 330 327 312 301 303 334 336 327 314 312 306 300 296 293 290 287 285 287 293 288 283 281 280 277
110 110 106 95 101 109 118 106 74 56 63 69 73 84 103 100 113 115 114 20 288 11 331 311 321 316 313 316 315 308 308 314 323 334 339 326 338 344 337 335 336 335 332 328 324 322 319 317 326 301 307 307 307 306 332 341 335 327 323 315 306 300 298 295 290 288 286 286 293 289 285 281 280 279
101 97 92 87 82 69 71 71 67 40 21 56 63 48 79 85 104 110 114 246 271 285 275 303 308 310 312 313 312 312 319 321 333 344 335 339 343 338 339 337 334 330 328 324 322 320 317 321 312 291 291 294 300 322 338 337 333 330 326 322 312 305 303 300 296 291 290 286 287 289 286 283 279 278
103 95 90 78 78 93 82 81 56 45 37 35 60 68 64 46 32 92 96 345 306 293 229 285 296 306 316 315 314 321 322 327 341 339 344 344 334 337 343 336 327 325 324 323 321 320 317 320 301 282 283 283 300 325 338 331 330 330 329 325 318 312 309 308 305 296 293 290 286 285 284 282 281 278
99 105 97 91 89 91 103 85 67 55 39 32 50 51 66 36 17 10 62 0 297 306 329 326 309 303 317 312 318 328 330 339 343 349 344 334 330 335 344 330 321 319 320 321 320 318 317 316 296 273 269 281 304 329 329 325 327 329 329 326 319 313 315 324 330 324 316 308 301 292 284 280 276 275
114 106 116 134 120 78 78 77 71 54 43 45 55 46 52 56 29 27 49 34 332 314 308 311 320 322 328 326 318 331 338 345 350 344 334 328 327 329 332 323 314 314 317 319 317 314 312 310 302 262 267 286 307 324 318 321 326 327 326 325 324 325 325 325 320 317 313 309 303 295 287 279 274 272
115 121 121 144 126 100 89 78 65 46 45 42 44 50 35 57 29 18 17 13 346 300 328 325 333 329 335 323 329 332 341 351 345 334 321 320 320 319 324 320 311 310 312 313 311 310 307 304 301 265 270 286 307 309 310 318 322 322 319 317 317 316 315 313 312 309 306 305 300 291 281 274 271 269
128 131 144 147 98 97 97 76 68 54 43 31 40 47 37 41 26 16 12 355 9 358 336 315 327 337 329 322 322 327 344 340 333 326 315 315 315 312 316 314 308 309 312 311 308 306 303 300 299 282 273 287 296 294 305 314 318 316 312 310 307 305 303 308 309 308 303 299 296 294 286 275 267 266
133 131 120 99 87 92 98 93 76 63 55 46 46 41 33 31 27 23 358 2 1 8 334 336 323 339 336 330 320 318 341 334 325 315 306 310 310 315 324 325 317 314 311 315 310 303 300 296 296 291 270 284 282 288 300 309 312 312 310 308 307 303 299 296 301 303 299 293 288 284 282 280 274 269
122 118 106 88 90 94 101 99 97 87 58 65 58 60 44 30 43 11 354 353 356 351 342 321 319 310 310 318 316 315 329 321 308 307 315 318 317 319 323 325 321 310 305 297 295 296 294 296 299 292 277 279 279 287 299 304 309 310 310 310 308 306 302 297 295 298 297 294 286 278 272 269 267 264
121 109 101 107 110 114 117 117 118 108 106 73 58 334 52 36 30 356 335 342 334 337 339 319 319 320 310 319 296 300 323 324 313 306 319 317 320 322 319 321 318 302 295 308 312 304 298 297 294 284 274 274 278 288 297 301 306 311 316 314 310 308 306 299 296 295 297 296 289 279 272 266 259 257
111 105 118 117 127 128 128 127 135 150 142 124 103 302 48 4 346 327 328 315 327 329 329 313 312 315 319 306 315 321 323 319 307 308 320 305 310 315 316 317 308 289 309 307 308 310 309 304 298 284 278 275 284 290 295 301 305 314 320 318 311 306 304 302 297 294 295 294 289 280 276 272 266 257
119 131 134 146 142 139 140 146 157 175 198 202 191 220 249 269 311 303 302 304 301 310 311 300 315 331 318 313 310 304 297 298 303 314 319 319 312 312 304 308 319 315 297 314 316 313 308 303 298 291 283 285 290 292 300 300 310 317 322 322 317 311 307 303 299 296 295 292 285 278 272 267 261 257
141 147 147 142 148 151 163 175 194 202 215 233 253 269 263 246 245 273 286 284 277 282 294 292 317 304 299 300 301 299 299 308 314 313 318 312 314 321 326 324 315 305 325 317 314 313 310 308 306 300 291 293 295 294 296 303 310 317 323 321 317 311 306 303 300 296 295 295 289 279 272 268 261 254
145 153 148 155 151 160 177 191 207 226 234 240 257 272 277 277 263 237 234 259 281 262 280 303 286 286 287 292 302 297 305 309 318 313 316 311 313 316 316 313 316 312 323 317 313 308 309 310 300 302 301 301 290 296 302 305 311 320 323 321 316 312 307 303 301 296 296 296 292 284 275 268 262 255
153 156 154 167 175 186 197 196 191 186 174 197 245 260 276 281 272 257 242 235 237 254 257 264 283 267 273 297 293 296 303 316 313 312 312 308 310 305 303 305 312 312 315 314 311 313 313 312 312 311 306 304 302 305 303 305 314 323 326 322 318 316 315 313 310 305 299 295 290 284 277 270 263 257
167 160 163 174 193 205 199 144 142 116 99 70 22 340 313 295 298 294 262 242 232 230 230 241 256 277 238 269 286 295 303 315 305 305 298 301 306 304 300 301 297 295 315 317 316 311 314 319 315 313 310 313 310 303 301 307 319 327 326 324 323 324 322 317 310 304 298 293 287 281 274 267 262 256
171 165 167 175 184 176 150 157 133 119 115 80 28 352 322 316 297 312 328 180 195 202 217 227 241 265 279 274 280 288 298 295 285 274 272 284 278 279 282 297 304 312 312 313 325 311 314 317 316 308 311 318 310 302 304 314 326 328 328 328 330 329 325 320 314 308 301 291 284 278 274 271 269 263
157 157 163 168 157 141 151 145 134 135 118 82 46 343 320 319 330 333 293 199 184 196 204 221 245 265 275 278 282 285 288 288 280 291 303 293 288 312 325 324 325 324 321 320 318 305 315 312 310 309 310 316 308 306 310 327 329 329 330 332 335 332 327 324 320 316 310 300 285 275 271 268 266 261
149 156 161 145 135 146 153 157 139 136 110 92 52 336 330 319 331 308 307 257 238 276 275 274 276 282 290 296 297 299 297 279 254 260 326 318 319 331 328 326 330 330 324 314 336 314 312 319 320 314 311 314 302 306 330 336 332 331 332 335 335 332 327 325 322 317 313 308 298 282 272 268 269 262
161 171 171 157 135 151 158 166 150 140 119 109 108 8 350 330 323 305 320 347 334 335 334 325 321 313 304 301 298 289 287 300 318 7 329 303 337 327 327 325 329 323 326 322 345 344 316 315 320 316 302 299 299 325 336 337 333 333 334 335 336 334 332 328 323 317 311 305 299 292 280 273 270 256
176 201 175 132 137 148 165 167 164 158 142 142 171 194 301 291 289 266 307 3 344 336 336 325 330 323 317 312 299 312 319 320 327 333 301 307 334 323 322 322 325 331 328 323 343 345 323 329 323 335 328 332 313 323 337 337 335 334 337 336 334 336 337 331 324 320 317 306 297 290 285 280 268 211
204 182 165 145 145 152 161 171 171 174 166 155 190 177 202 244 270 265 324 318 327 306 299 296 307 304 301 292 317 329 327 325 327 321 314 309 320 320 316 320 327 323 309 316 337 343 306 310 314 328 318 314 329 331 333 340 339 336 337 337 337 339 337 333 331 323 315 309 305 298 287 283 244 193
187 186 180 174 164 161 168 172 178 176 179 179 177 191 210 214 224 342 340 310 333 310 305 308 309 307 300 311 326 324 323 323 323 321 315 316 318 321 314 314 315 312 306 313 327 345 318 320 315 326 323 306 279 320 325 328 336 340 339 338 339 340 341 335 327 324 321 317 311 306 294 285 214 182
199 183 189 183 186 174 172 177 180 181 182 190 192 223 225 239 258 285 282 291 294 303 302 310 308 301 305 332 326 324 321 320 321 317 316 320 322 318 295 273 295 312 320 319 328 333 335 329 329 328 318 334 320 323 324 329 328 340 336 340 343 339 343 338 339 341 337 329 334 354 358 355 163 167
266 253 201 197 185 183 180 180 181 182 192 186 222 236 242 246 255 265 264 263 287 294 301 304 300 282 303 330 321 316 317 316 318 316 318 320 322 319 318 314 271 266 285 305 319 326 339 308 318 329 319 319 317 321 328 338 336 339 345 347 344 347 347 347 349 346 342 353 357 6 19 32 75 84
260 257 206 209 190 186 183 181 181 187 187 211 233 241 250 254 248 251 273 277 269 283 293 299 277 277 289 309 313 305 301 305 304 305 314 321 321 320 320 315 314 302 299 305 316 322 326 318 318 319 318 313 323 327 325 312 317 337 341 339 341 345 350 353 351 350 351 0 8 17 11 17 23 44
1 291 279 211 184 177 176 179 183 197 221 232 241 250 256 263 260 246 253 268 284 291 280 274 265 268 270 269 256 270 294 307 316 325 325 324 320 321 326 323 319 317 313 316 321 321 321 323 317 316 325 318 322 301 295 303 308 331 344 342 346 342 346 353 354 353 349 354 17 24 21 6 7 27
238 350 88 121 149 156 163 163 186 220 234 238 238 245 252 254 246 245 249 263 259 257 266 266 258 255 265 291 281 286 314 335 312 306 316 324 319 326 334 334 327 327 328 329 329 319 321 325 322 324 323 320 309 298 298 310 314 322 336 346 333 317 354 354 353 357 355 349 355 21 31 31 28 30
255 263 166 157 167 174 185 194 213 227 248 258 257 248 240 235 234 233 225 237 243 253 258 262 258 255 258 278 332 319 328 314 299 304 308 316 305 322 327 335 320 327 326 329 331 330 325 325 323 333 336 320 321 308 292 261 290 316 332 340 349 351 336 345 357 359 353 346 340 0 23 23 23 28
201 196 210 185 196 201 220 226 243 246 245 248 256 259 251 245 243 240 241 247 235 242 240 244 259 278 300 324 288 303 316 297 294 306 322 309 308 317 335 342 321 318 323 327 329 330 335 337 329 323 324 303 311 313 332 309 291 305 313 333 344 343 346 352 348 355 353 342 355 10 11 21 17 12
198 176 175 193 207 208 216 229 235 245 255 266 256 262 261 250 247 247 241 242 246 241 239 245 231 244 285 288 289 302 313 302 301 312 325 309 316 316 338 329 312 323 326 325 327 328 332 332 338 326 310 292 236 241 308 325 319 333 319 322 345 346 349 349 352 349 351 1 4 355 7 15 19 13
180 186 182 194 196 207 211 222 234 239 246 260 275 269 264 261 250 240 238 237 240 232 213 211 218 248 252 274 290 301 293 300 311 311 321 303 317 326 323 323 318 321 324 319 322 325 327 330 332 336 341 307 205 205 196 234 303 326 318 324 335 345 340 344 348 355 356 2 342 356 5 11 12 11
189 194 190 206 203 206 208 218 229 237 244 254 256 265 268 263 247 237 229 231 223 220 221 239 238 240 212 238 260 274 286 300 306 314 313 315 321 319 311 321 318 321 323 321 321 325 330 328 336 339 339 346 345 330 202 197 341 312 325 333 341 333 339 341 342 354 356 359 9 7 2 7 5 5
203 191 188 196 208 207 214 228 228 231 236 244 243 249 264 263 242 228 240 237 226 243 238 238 247 226 216 225 241 253 292 312 308 306 310 312 316 315 320 316 316 315 318 316 316 322 331 329 342 347 348 342 348 344 353 187 191 317 350 339 341 337 330 338 337 354 3 2 3 6 12 1 348 348
197 206 202 198 207 202 219 237 243 254 248 254 259 256 244 250 259 231 236 239 239 222 221 226 222 203 215 222 236 286 304 312 305 308 304 299 305 307 322 322 323 318 321 315 316 316 333 335 339 353 348 347 347 347 330 335 226 224 49 348 334 340 334 335 340 360 3 356 355 1 354 339 358 348
197 200 205 206 209 218 222 231 241 249 252 251 255 264 265 255 256 251 244 214 228 230 232 189 197 190 210 215 257 306 301 303 303 301 287 297 318 315 313 314 311 314 313 309 318 318 327 334 342 341 358 346 341 338 334 324 333 312 70 50 345 326 334 337 355 1 352 356 353 333 335 355 353 347
195 195 196 200 206 210 220 226 223 235 246 248 247 247 258 263 246 245 237 228 244 231 160 165 179 200 219 260 268 261 289 304 311 293 296 305 299 299 312 318 316 312 327 321 320 325 334 341 338 339 339 341 330 313 290 295 310 313 315 327 52 328 346 350 343 334 351 351 344 326 296 263 253 274
198 188 191 192 211 212 225 235 246 246 254 255 254 258 256 250 231 224 232 242 198 167 170 184 199 201 249 256 296 327 312 278 269 267 274 287 295 304 307 308 301 297 321 318 325 322 329 326 331 326 319 301 283 276 267 248 253 288 308 304 291 259 278 340 346 342 341 346 322 333 345 337 16 0
190 194 204 200 207 213 221 230 234 243 247 252 258 265 265 252 240 234 227 214 168 170 184 196 196 193 238 280 300 278 281 285 272 270 287 293 300 305 307 314 313 308 326 314 316 319 315 311 301 300 291 300 301 319 347 354 347 338 334 326 298 296 298 307 312 337 331 325 337 339 359 3 6 6
192 200 204 202 208 220 218 227 233 237 248 252 260 268 268 253 227 225 221 228 208 201 187 198 212 223 249 262 262 261 224 243 265 287 277 288 302 310 312 316 306 303 320 310 303 297 294 308 316 326 340 351 7 11 347 341 334 327 325 319 320 285 286 297 308 304 300 325 347 7 350 11 37 31
194 202 207 214 217 222 223 227 231 231 241 246 253 257 263 269 264 242 221 215 200 190 201 221 226 216 237 244 238 219 231 263 265 257 272 287 293 298 302 299 294 289 290 285 288 290 300 313 336 347 341 358 352 20 342 326 318 322 326 331 328 331 314 277 278 298 317 325 354 40 41 340 357 31
199 202 213 215 219 222 224 225 228 226 228 234 238 245 252 249 237 227 206 199 188 200 206 203 213 200 220 238 257 284 264 253 264 270 275 279 286 288 282 289 291 296 301 303 311 312 316 323 328 358 351 333 329 348 337 333 331 328 322 314 319 340 343 335 321 298 299 300 314 335 354 7 37 145
201 206 212 217 217 221 222 224 227 229 226 232 234 235 232 217 218 226 234 216 209 205 191 194 202 230 236 248 239 257 267 266 265 263 259 273 282 283 282 272 291 306 305 303 320 312 320 322 321 339 339 329 337 331 311 319 313 319 326 336 335 336 339 345 347 346 342 330 280 273 286 291 300 299